Location: Evergreen Manor
(41.4083°N, 81.4939°W)
Time: 01:55:31
(UTC+00:00)

Okean 1 - Pass Details

Date: 11 December 2019
Orbit: 540 x 554 km, 82.5° (Epoch: 28 January)

Event Time Altitude Azimuth Distance (km) Brightness Sun altitude
Exits shadow 11:09:16 22° 335° (NNW) 1,207 4.7 -16.7°
Maximum altitude 11:11:35 53° 266° (W) 670 3.4 -16.3°
Drops below altitude 10° 11:15:26 10° 189° (S) 1,801 6.0 -15.6°
Sets 11:17:37 0° 185° (S) 2,690 7.0 -15.2°
